This demonstration page uses our WeatherBlox Daily Observations layout. Learn more.

Left ArrowRight Arrow

38.89511, -77.03637

Hourly Observations for July 6, 2018

Temp ( °F °C ) Dew Point ( °F °C ) Humidity (%) Winds ( mph kmh ) Pressure ( in mb ) Visibility ( mi km ) Precip ( " mm )
12:52 am 00:52 Mostly Clear 82 27.8 75 23.9 79 79 S 12 19 30.16 1021 10 16 0.00 0.00
1:52 am 01:52 Partly Cloudy 82 27.8 75 23.9 79 79 S 8 13 30.15 1021 10 16 0.00 0.00
2:52 am 02:52 Partly Cloudy 81 27.2 75 23.9 82 82 S 10 17 30.14 1021 10 16 0.00 0.00
3:52 am 03:52 Partly Cloudy 81 27.2 75 23.9 82 82 S 12 19 30.11 1020 10 16 0.00 0.00
4:52 am 04:52 Partly Cloudy 81 27.2 74 23.3 79 79 SSW 8 13 30.10 1019 10 16 0.00 0.00
5:52 am 05:52 Mostly Cloudy 80 26.7 74 23.3 82 82 SSW 8 13 30.10 1019 10 16 0.00 0.00
6:52 am 06:52 Cloudy 81 27.2 74 23.3 79 79 SSW 9 15 30.11 1020 10 16 0.00 0.00
7:52 am 07:52 Cloudy 81 27.2 73 22.8 77 77 SSW 7 11 30.11 1020 10 16 0.00 0.00
8:52 am 08:52 Cloudy 82 27.8 73 22.8 74 74 W 5 7 30.11 1020 10 16 0.00 0.00
9:52 am 09:52 Cloudy 84 28.9 73 22.8 70 70 NW 7 11 30.12 1020 10 16 0.00 0.00
10:52 am 10:52 Cloudy with Light Rain 81 27.2 72 22.2 74 74 NNW 12 19 30.12 1020 9 14 0.00 0.03
11:52 am 11:52 Cloudy 83 28.3 72 22.2 70 70 NNW 9 15 30.12 1020 10 16 0.00 0.03
12:52 pm 12:52 Cloudy 84 28.9 71 21.7 65 65 NNW 13 20 30.12 1020 10 16 0.00 0.00
1:52 pm 13:52 Cloudy 84 28.9 71 21.7 65 65 NNW 13 20 30.10 1019 10 16 0.00 0.00
2:52 pm 14:52 Mostly Cloudy 87 30.6 73 22.8 63 63 NNW 9 15 30.08 1019 10 16 0.00 0.03
3:21 pm 15:21 Cloudy 88 31.1 72 22.2 59 59 N 10 17 30.09 1019 10 16 0.00 0.00
3:52 pm 15:52 Cloudy 86 30 72 22.2 63 63 NW 12 19 30.06 1018 10 16 0.00 0.00
4:52 pm 16:52 Cloudy 86 30 71 21.7 61 61 NNW 8 13 30.05 1018 10 16 0.00 0.00
5:52 pm 17:52 Cloudy 85 29.4 72 22.2 65 65 NW 10 17 30.06 1018 10 16 0.00 0.00
6:19 pm 18:19 Cloudy with Nearby Thunderstorms 85 29.4 72 22.2 65 65 WNW 10 17 30.06 1018 10 16 0.00 0.00
6:29 pm 18:29 Cloudy with Thunderstorms 85 29.4 72 22.2 65 65 NW 10 17 30.06 1018 10 16 0.00 0.00
6:44 pm 18:44 Cloudy with Nearby Thunderstorms 85 29.4 71 21.7 63 63 NW 8 13 30.06 1018 10 16 0.00 0.00
6:52 pm 18:52 Cloudy 85 29.4 71 21.7 63 63 NW 12 19 30.06 1018 10 16 0.00 0.00
7:49 pm 19:49 Cloudy with Nearby Thunderstorms 86 30 68 20 55 55 ENE 9 15 30.09 1019 10 16 0.00 0.00
7:52 pm 19:52 Cloudy with Nearby Thunderstorms 86 30 67 19.4 53 53 ENE 10 17 30.07 1018 10 16 0.00 0.00
8:04 pm 20:04 Cloudy 85 29.4 67 19.4 55 55 ENE 12 19 30.06 1018 10 16 0.00 0.00
8:28 pm 20:28 Cloudy with Thunderstorms 85 29.4 66 18.9 53 53 NE 12 19 30.09 1019 10 16 0.00 0.00
8:52 pm 20:52 Cloudy with Thunderstorms 84 28.9 66 18.9 55 55 ENE 8 13 30.09 1019 10 16 0.00 0.00
9:31 pm 21:31 Mostly Cloudy with Nearby Thunderstorms 85 29.4 66 18.9 53 53 NE 10 17 30.09 1019 10 16 0.00 0.00
9:52 pm 21:52 Mostly Cloudy with Nearby Thunderstorms 84 28.9 65 18.3 53 53 NNE 9 15 30.11 1020 10 16 0.00 0.00
10:03 pm 22:03 Mostly Cloudy 84 28.9 66 18.9 55 55 NNE 10 17 30.12 1020 10 16 0.00 0.00
10:52 pm 22:52 Cloudy 83 28.3 62 16.7 49 49 NNE 13 20 30.13 1020 10 16 0.00 0.00
11:52 pm 23:52 Cloudy 81 27.2 62 16.7 53 53 NNE 14 22 30.14 1021 10 16 0.00 0.00

Powered by AerisWeather